Regional Weather Roundup
Issued by NWS Green Bay, WI

Home | Current Version | Previous Version | Graphics & Text | Print | Product List | Glossary Off
Versions: 1 2 3 4 5 6 7 8 9 10 11 12 13 14 15 16 17 18 19 20 21 22 23 24 25 26 27 28 29 30 31 32 33 34 35 36 37 38 39 40 41 42 43 44 45 46 47 48 49 50

000
ASUS43 KGRB 231110
RWRGRB

NORTH-CENTRAL AND NORTHEAST WISCONSIN REGIONAL WEATHER ROUNDUP
NATIONAL WEATHER SERVICE GREEN BAY WI
600 AM CDT WED JUL 23 2014

WIZ005-009-010>012-018-019-231200-
NORTH CENTRAL WISCONSIN

CITY           SKY/WX    TMP DP  RH WIND       PRES   REMARKS
IRONWOOD       NOT AVBL
MANITOWISH WTR FOG       48  48 100 CALM      30.21S VSB 1/2
ARBOR VITAE    CLEAR     49  46  88 CALM      30.22R
EAGLE RIVER    FOG       47  47 100 CALM      30.21R VSB<1/4
LAND O LAKES     N/A     47  47  99 CALM      30.22S FOG
RHINELANDER    CLEAR     52  51  97 CALM      30.22R FOG
PHILLIPS       PTCLDY    51  51 100 CALM      30.22R FOG
ANTIGO         CLEAR     49  49 100 CALM      30.21R
TOMAHAWK       FOG       47  46  97 CALM      30.23R VSB<1/4
MERRILL        FOG       48  48 100 CALM      30.21R VSB 1/4
$$

WIZ013-073-231200-
NORTHEAST WISCONSIN

CITY           SKY/WX    TMP DP  RH WIND       PRES   REMARKS
IRON MOUNTAIN  CLEAR     53  51  93 NW3       30.18R
MARINETTE      CLEAR     55  52  88 N6        30.15R
OCONTO         CLEAR     55  55  98 NW3       30.16R
$$

WIZ017-030-035>037-045-231200-
CENTRAL WISCONSIN

CITY           SKY/WX    TMP DP  RH WIND       PRES   REMARKS
MEDFORD        FOG       52  52 100 CALM      30.22R VSB 3/4
WAUSAU         CLEAR     57  56  96 NW6       30.19R
MOSINEE        CLEAR     55  55 100 NW5       30.21R
MARSHFIELD     CLEAR     56  54  93 CALM      30.20R
WISC RAPIDS    CLEAR     56  55  97 CALM      30.21R FOG
STEVENS POINT  CLEAR     52  51  99 CALM      30.20R
WAUPACA        CLEAR     56  55  94 CALM      30.18R
SHAWANO        CLEAR     59  55  85 N6        30.18R
CLINTONVILLE   CLEAR     57  54  88 N5        30.18R
$$

WIZ038-039-048-051-231200-
FOX VALLEY

CITY           SKY/WX    TMP DP  RH WIND       PRES   REMARKS
NWS GREEN BAY  CLEAR     58  55  90 N9        30.16R
APPLETON       PTCLDY    57  55  94 N6        30.17R
OSHKOSH        CLEAR     60  56  86 N7        30.16R
FOND DU LAC    PTCLDY    60  55  83 NW8       30.16R
$$

WIZ022-050-052-231200-
EAST CENTRAL WISCONSIN

CITY           SKY/WX    TMP DP  RH WIND       PRES   REMARKS
STURGEON BAY   PTCLDY    59  54  82 N14       30.15R
MANITOWOC      CLEAR     59  55  87 N8        30.15R
SHEBOYGAN      CLEAR     58  54  86 N6        30.14R
$$

LMZ563-521-522-541>543-231200-
LAKESHORE

STATION/POSITION TIME  TEMP    WIND        PRES    VSBY  WAVE
                       AIR SEA DIR/SP/G                  HT/PER
                 (UTC) (F)     (DEG/KT/KT) (MB)    (MI)  (FT/S)
SHEBOYGAN LKSHOR 1100   62     340/ 11/ 14 1020.6R
KEWAUNEE LKSHORE 1100   59     330/  6/  9 1021.2R
NORTHPORT PIER   1100   61     340/ 15/ 18 1020.3S
N MID LAKE BUOY  1100   55 53  330/ 14/ 16 1019.2R         2/ 4
CHAMBERS ISLAND  1100   59     310/ 11/ 14 1020.7R
MENOMINEE LKSHOR 1100   55     310/  7/ 10 1021.6R
$$



USA.gov is the U.S. government's official web portal to all federal, state and local government web resources and services.